Preview of NWS' New Version of Forecast
This preview is not operational and should not be used for support decisions.

Regional Weather Roundup (RWR)

Issued by National Weather Service (NWS)

                            
562 
ASUS42 KTBW 260816
RWRFL 
FLORIDA REGIONAL WEATHER ROUNDUP
NATIONAL WEATHER SERVICE TAMPA BAY RUSKIN FL
400 AM EDT TUE MAR 26 2019

NOTE: "FAIR" INDICATES FEW OR NO CLOUDS BELOW 12,000 FEET WITH NO
SIGNIFICANT WEATHER AND/OR OBSTRUCTIONS TO VISIBILITY.

FLZ001>010-012>015-112-114-115-260900-
PANHANDLE FLORIDA
  
CITY           SKY/WX    TMP DP  RH WIND       PRES   REMARKS
PENSACOLA      FAIR      61  54  77 N10       30.06F                  
PENSACOLA NAS  FAIR      61  54  77 N6        30.06F                  
MILTON NAS     FAIR      59  53  80 NW7       30.06F                  
CRESTVIEW      FAIR      57  55  93 NW3       30.06F                  
DUKE FIELD     FAIR      59  56  91 NW9       30.04F                  
VALPARAISO     FAIR      61  55  82 NW7       30.03F                  
MARY ESTHER    CLEAR     60  54  79 N6        30.03F                  
PANAMA CITY    FAIR      58  56  93 NW6       30.01F                  
TYNDALL AFB    FAIR      63  61  91 N3        30.01F                  
APALACHICOLA   CLOUDY    65  62  90 W6        30.01F                  

STATION/POSITION SKY/WX   TEMP    WIND        PRES    WAVE   SWELL
                          AIR SEA DIR/SP/G            HT/PER HT/PER
                          (F)     (DEG/KT/KT) (MB)    (FT/S) (FT/S)
30.1N   87.6W                                 1018.3F   2/ 4
29.2N   88.2W                     350/ 17/ 19 1018.5F   3/ 7   2/ 7
PANAMA CITY BEAC           63 67  330/  8/ 10 1016.9F
TOWER C                    67     280/ 13/ 14 1016.5F

$$
FLZ011-016>038-118-127-128-134-139-239-260900-
NORTH FLORIDA
  
CITY           SKY/WX    TMP DP  RH WIND       PRES   REMARKS
MARIANNA       FAIR      60  60 100 W6        30.01F                  
TALLAHASSEE    FAIR      61  61 100 NW3       30.00F                  
PERRY          FAIR      61  60  97 W5        30.02F                  
LIVE OAK       CLEAR     59  59 100 S3        30.00F                  
CROSS CITY     MOCLDY    61  60  97 W5        30.02S                  
LAKE CITY      FAIR      55  55 100 W6        30.01F                  
GAINESVILLE    FAIR      61  56  83 W6        30.04F                  
WILLISTON        N/A    N/A N/A N/A MISG        N/A                   
PALATKA        CLOUDY   N/A N/A N/A W3        30.01S                  
MAYPORT NAS    FAIR      63  57  81 W7        29.98F                  
JACKSONVILLE   FAIR      58  55  90 W3        29.98F                  
JAX NAS        FAIR      63  57  81 W9        29.99F                  
JAX CECIL      FAIR     N/A N/A N/A SW6       29.99F                  
FERNANDINA BEA MOCLDY    61  56  84 SW5       29.98F                  
ST AUGUSTINE   FAIR      63  57  81 W9        30.00F                  
PALM COAST     FAIR      61  56  84 W7        30.00F                  

STATION/POSITION SKY/WX   TEMP    WIND        PRES    WAVE   SWELL
                          AIR SEA DIR/SP/G            HT/PER HT/PER
                          (F)     (DEG/KT/KT) (MB)    (FT/S) (FT/S)
SHELL POINT      NOT AVBL
KEATON BEACH               66     290/  6/  8 1016.5F
CEDAR KEY                  67     290/  7/  9 1016.5F
FERNANDINA                 64 65  210/  2/  4 1015.7F
30.7N   81.3W                 64                N/A     2/10
MAYPORT                    63 63  280/  7/ 10 1015.5F
31.4N   80.9W              62 63  210/  2/  4 1014.0F   2/ 4   2/ 5
ST AUGUSTINE               63 63  260/  8/ 12 1015.6F

$$
FLZ040-043>046-052-053-057-058-063-144-260900-
INTERIOR CENTRAL FLORIDA
  
CITY           SKY/WX    TMP DP  RH WIND       PRES   REMARKS
OCALA          FAIR      55  54  96 CALM      30.03S                  
LEESBURG       FAIR      63  62  97 W3        30.02F                  
SANFORD        FAIR      64  62  93 W6        30.01F                  
ORLANDO EXEC   MOCLDY    67  65  93 W9        30.01F                  
ORLANDO INTL   MOCLDY    65  62  90 W5        30.01F                  
KISSIMMEE      MOCLDY    65  64  97 W5        30.02F                  
WINTER HAVEN   CLOUDY    65  65 100 NW9       30.02F FOG              
BARTOW         CLOUDY    66  63  88 W5        30.01F                  
SEBRING        FAIR      62  58  87 CALM      30.01F                  
OKEECHOBEE     FAIR      63  59  88 CALM      30.01S                  

$$
FLZ041-047-054-059-064-141-147-260900-
EAST CENTRAL FLORIDA
  
CITY           SKY/WX    TMP DP  RH WIND       PRES   REMARKS
DAYTONA BEACH  FAIR      63  59  87 W7        30.00F                  
DELAND         FAIR      63  57  82 W7        30.01S                  
JFK SPACE CTR  FAIR     N/A N/A N/A W3          N/A                   
CAPE CANAVERAL FAIR      61  59  94 CALM      29.98F                  
PATRICK AFB    FAIR      66  65  96 W5        29.99F                  
MELBOURNE      FAIR      62  60  93 W5        30.00F                  
VERO BEACH     FOG       63  61  93 W5        30.00S VSB 3/4          
STUART         FAIR      68  64  88 SW5       30.01F                  

STATION/POSITION SKY/WX   TEMP    WIND        PRES    WAVE   SWELL
                          AIR SEA DIR/SP/G            HT/PER HT/PER
                          (F)     (DEG/KT/KT) (MB)    (FT/S) (FT/S)
28.5N   80.2W              72     280/ 10/ 12 1015.7F   2/ 7   2/ 7
28.9N   78.5W              74 74  190/ 14/ 17 1014.7F   3/ 4   2/ 7
TRIDENT PIER               67 69  260/  5/  6 1016.6F
28.4N   80.5W                 70                N/A     2/10
27.5N   80.2W                 73                N/A     2/11

$$
FLZ050-056-061-142-242-148-248-149-249-151-251-155-255-
160-260-260900-
WEST CENTRAL FLORIDA
  
CITY           SKY/WX    TMP DP  RH WIND       PRES   REMARKS
CRYSTAL RIVER  FAIR      54  54 100 CALM      30.03F                  
INVERNESS      FOG       55  55 100 CALM      30.03F VSB 1/4          
BROOKSVILLE    CLOUDY    65  65 100 W5        30.03F FOG              
CLEARWATER AIR CLOUDY    68  66  94 CALM      30.02F                  
ST PETE CLEARW CLOUDY    68  66  93 NW6       30.02F                  
TAMPA INTL     CLOUDY    70  67  90 NW6       30.03F                  
TAMPA EXEC     CLOUDY    64  63  94 CALM      30.03F                  
PLANT CITY     FOG       66  66 100 NW3       30.04F VSB 1/2          
MACDILL AFB    FAIR      68  66  94 W8        30.02S                  
PETER O KNIGHT CLOUDY   N/A N/A N/A NW3       30.03S                  
ST PETERSBURG  FAIR      69  67  93 NW7       30.00F                  
SARASOTA       FAIR      65  63  93 N6        30.00F                  
VENICE         FAIR      64  64 100 CALM      30.02S                  

STATION/POSITION SKY/WX   TEMP    WIND        PRES    WAVE   SWELL
                          AIR SEA DIR/SP/G            HT/PER HT/PER
                          (F)     (DEG/KT/KT) (MB)    (FT/S) (FT/S)
27.3N   84.2W                 73                N/A     1/ 5
CLEARWATER BEACH           69 72  290/  7/  7 1016.8F
MIDDLE TAMPA BAY           69     320/  6/  7 1016.6F
VENICE                     71 72  290/  5/  6 1016.1F

$$
FLZ066-069-070-075>078-162-262-165-265-260900-
SOUTHWEST FLORIDA AND KEYS
  
CITY           SKY/WX    TMP DP  RH WIND       PRES   REMARKS
PUNTA GORDA    FAIR      61  59  93 CALM      30.03F                  
FT MYERS       FAIR      66  63  90 CALM      30.01S                  
SOUTHWEST INTL FAIR      65  62  90 CALM      30.01F                  
NAPLES         FAIR      67  65  93 SE3       30.01F                  
MARCO ISLAND   FAIR      66  64  93 CALM      30.02F                  
IMMOKALEE      MOCLDY    61  59  94 CALM      30.00F                  
MARATHON       FAIR      74  69  85 N3        29.99F                  
KEY WEST NAS   FAIR      75  70  84 N3        30.00F                  
KEY WEST INTL  FAIR      73  70  90 CALM      30.00F                  

STATION/POSITION SKY/WX   TEMP    WIND        PRES    WAVE   SWELL
                          AIR SEA DIR/SP/G            HT/PER HT/PER
                          (F)     (DEG/KT/KT) (MB)    (FT/S) (FT/S)
NAPLES                     70 75  100/  4/  5 1016.3F
DRY TORTUGAS               75     330/  3/  4 1016.3F
SAND KEY                   75                 1016.0F
SOMBRERO KEY               75                 1015.3F
MOLASSES REEF              76 78  340/  2     1016.0

$$
FLZ067-068-071>074-168-172>174-260900-
SOUTHEAST FLORIDA 
  
CITY           SKY/WX    TMP DP  RH WIND       PRES   REMARKS
W PALM BEACH   MOCLDY    69  67  93 W6        30.01F                  
FT LAUDER-EXEC FAIR      70  67  90 W3        29.99F                  
FT LAUDERDALE  FAIR      71  67  87 W3        29.99F                  
POMPANO BEACH  FAIR      71  67  87 W5        30.00F                  
PEMBROKE PINES FAIR      69  67  93 SW5       30.01F                  
OPA LOCKA      FAIR      70  67  90 W6        30.01F                  
MIAMI          FAIR      71  65  81 W5        30.01F                  
WEST KENDALL   FAIR      67  64  90 W5        30.00F                  
HOMESTEAD      FAIR      68  65  89 W7        30.00F                  

STATION/POSITION SKY/WX   TEMP    WIND        PRES    WAVE   SWELL
                          AIR SEA DIR/SP/G            HT/PER HT/PER
                          (F)     (DEG/KT/KT) (MB)    (FT/S) (FT/S)
PORT EVERGLADES            74     220/  2/  4 1016.2
VIRGINIA KEY               73 76  270/  3/  6 1015.2F
LAKE WORTH                 72 78  280/  4/  5 1017.0F
FOWEY ROCKS                74 77  280/ 10/ 11 1016.4F
SETTLEMENT POINT           75     210/ 10/ 11 1015.6F

$$